Location: Brantley
(31.5822°N, 86.2569°W)
Time: 12:34:13
(UTC+00:00)

Vanguard 3 - Pass Details

Date: 21 February 2026
Orbit: 507 x 3205 km, 33.4° (Epoch: 17 March)

Event Time Altitude Azimuth Distance (km) Brightness Sun altitude
Rises 17:39:43 0° 213° (SSW) 7,131 12.4 47.8°
Reaches altitude 10° 17:45:25 10° 205° (SSW) 5,998 12.3 47.9°
Maximum altitude 18:00:35 34° 149° (SSE) 3,572 11.8 48.1°
Drops below altitude 10° 18:11:09 10° 90° (E) 4,220 10.9 48.0°
Sets 18:14:18 0° 81° (E) 4,865 11.0 47.9°
